Wind_Speed
57 57 55 52 51 53 55 59 62 59 47 44 45 51 40 33 31 24 19 26 33 33 31 34 40 45 42 34 32 34 27 22 23 24 20 22 24 26 26 26 27 25 25 24 23
35 42 61 52 61 54 56 61 50 55 56 46 48 46 41 39 37 33 28 38 43 42 39 43 48 47 40 34 33 28 27 20 23 22 19 21 24 24 25 25 24 24 23 23 22
27 27 31 36 49 50 51 62 45 42 47 52 54 55 50 48 47 41 41 45 48 44 42 39 38 36 34 26 28 26 23 23 18 22 19 20 21 21 27 25 24 22 25 23 21
25 24 25 25 26 27 29 35 41 44 45 45 49 51 57 56 55 50 47 46 39 36 33 34 33 33 28 26 29 29 23 19 18 19 20 21 20 23 25 23 23 23 25 24 21
29 29 28 29 30 30 33 34 33 34 37 37 40 42 43 45 33 41 40 39 36 33 30 30 30 30 27 26 30 31 21 18 17 17 21 23 27 27 24 23 25 26 27 26 21
32 33 34 35 35 35 36 36 35 33 32 33 35 35 33 24 29 38 36 37 33 28 27 27 27 32 30 25 31 30 18 19 16 20 19 24 26 27 22 23 27 28 28 21 20
37 38 39 40 39 39 39 39 40 39 37 34 33 32 29 20 30 34 36 29 26 25 27 28 29 31 30 28 31 26 19 21 23 24 22 29 23 27 24 23 28 30 25 19 21
39 41 42 42 41 41 43 44 43 40 38 36 34 33 26 27 28 29 29 28 28 28 30 30 31 33 30 29 29 25 26 25 23 23 28 28 18 26 24 23 29 30 24 20 21
32 32 33 33 32 32 33 35 37 41 45 42 39 38 30 28 31 33 33 33 33 31 31 32 34 33 30 27 27 24 25 28 28 19 23 23 19 23 25 24 25 28 26 19 20
39 39 37 36 35 34 33 33 34 33 32 32 32 31 27 29 33 33 33 35 34 32 33 35 36 32 27 26 22 23 23 20 20 23 30 30 26 18 26 20 19 25 22 17 19
48 47 46 43 41 39 37 37 36 34 31 29 30 27 28 23 30 37 36 34 32 34 32 31 33 23 21 23 22 23 24 25 25 29 31 31 29 22 26 21 22 23 21 19 18
54 55 53 50 48 46 44 43 41 40 36 32 30 29 28 27 27 31 32 32 33 31 29 28 22 17 23 25 25 26 27 29 31 36 33 32 29 27 26 24 19 21 24 23 21
59 58 55 53 51 51 49 46 45 44 44 37 37 34 27 32 28 29 27 28 30 30 26 24 17 22 23 23 25 24 26 30 33 35 34 33 30 32 25 22 19 21 23 23 21
66 65 62 58 56 55 53 51 48 46 48 43 39 39 35 35 34 28 28 26 27 22 25 26 23 22 25 27 23 27 26 32 34 35 33 30 33 29 25 23 24 25 26 20 18
72 70 68 65 62 60 58 57 55 52 51 48 45 46 40 42 28 29 29 31 27 22 24 17 20 24 30 25 27 28 29 32 34 34 32 29 33 27 24 23 22 24 20 17 17
73 75 76 71 67 67 65 62 62 58 62 56 49 46 44 44 39 35 32 30 29 28 24 22 24 29 30 31 34 34 32 31 34 35 33 27 30 25 24 21 18 16 14 15 14
83 79 77 78 73 73 72 69 67 70 65 63 58 50 43 44 45 42 38 33 31 28 24 22 22 25 29 34 34 34 32 33 36 35 29 26 27 22 19 18 18 13 14 15 15
93 89 85 80 78 77 79 78 75 74 69 67 63 56 52 43 42 41 41 40 39 34 29 28 26 21 24 27 29 31 32 34 33 32 28 27 26 20 17 14 18 14 15 18 14
100 98 92 88 85 84 84 86 79 76 70 68 68 65 60 50 47 43 40 40 38 35 31 28 28 23 26 24 27 26 29 28 30 32 30 26 22 17 13 13 15 12 9 14 12
82 99 99 96 93 90 89 85 79 77 76 71 71 69 63 55 51 47 45 43 42 36 31 31 32 25 26 28 30 27 27 28 30 32 30 24 19 10 11 12 13 11 13 14 12
52 69 85 96 98 97 94 81 80 81 79 77 74 71 68 59 53 50 48 46 43 36 35 35 34 29 31 34 28 29 27 30 30 31 29 23 16 8 6 11 16 15 16 15 13
41 49 59 72 83 98 94 84 86 84 85 82 79 74 69 63 59 54 50 48 45 39 38 36 35 34 30 31 31 32 28 32 31 31 26 25 13 10 10 10 12 13 12 14 9
38 37 45 53 69 82 89 91 90 88 86 87 84 77 71 67 63 57 54 52 49 45 43 40 42 39 38 39 38 34 32 31 32 32 29 21 9 12 10 12 13 11 8 11 7
33 30 33 32 50 65 81 90 93 90 89 88 86 80 75 70 66 63 57 56 53 48 46 41 43 45 41 33 33 34 31 31 29 29 26 17 12 11 14 15 16 13 11 10 8
19 23 23 37 36 40 68 83 91 93 90 87 84 80 76 73 68 65 61 58 55 50 48 47 46 46 42 41 36 34 32 32 29 25 23 14 13 10 16 19 17 15 15 12 10
9 15 24 17 7 21 48 70 84 91 88 84 83 79 79 74 71 68 64 62 58 56 51 49 48 48 46 42 37 35 35 36 28 28 26 23 20 16 20 18 17 16 15 17 14
12 20 28 27 9 18 34 42 68 81 85 85 82 80 77 76 71 71 68 64 62 59 54 52 51 50 48 45 40 44 38 34 26 30 29 28 16 20 21 21 17 17 16 16 16
Wind_Direction
234 234 228 233 235 239 243 247 242 241 240 240 261 254 259 253 255 259 275 265 270 272 278 288 293 297 298 297 300 305 303 297 290 283 287 290 293 293 296 296 300 306 312 320 322
245 246 235 248 234 236 237 243 241 245 249 247 250 250 250 254 255 257 269 274 271 274 280 287 288 290 293 295 296 297 294 286 276 287 291 295 294 296 298 296 300 307 314 319 325
246 245 250 252 244 251 256 243 257 255 247 240 248 254 257 255 257 267 269 272 271 272 279 277 277 284 287 289 291 286 287 276 283 285 294 295 293 295 300 297 302 309 313 324 322
251 247 247 248 245 251 257 257 260 262 256 254 254 258 254 257 265 266 266 263 262 266 269 270 277 278 279 281 280 282 275 275 276 286 302 297 288 296 295 299 303 309 317 325 315
258 257 254 253 254 249 249 253 257 259 256 252 252 256 257 261 264 255 251 253 254 259 261 268 267 273 272 269 274 277 269 273 266 273 292 291 286 291 295 299 304 307 319 324 316
260 257 254 253 253 254 255 256 257 256 257 255 250 252 254 253 247 254 251 243 242 245 257 266 267 267 264 266 271 273 264 271 262 284 283 288 285 288 292 299 306 314 320 316 313
258 256 254 253 256 257 258 258 258 255 253 252 252 254 256 246 241 246 251 243 233 244 254 261 260 261 264 262 267 260 255 264 273 272 271 289 297 296 300 307 313 314 314 313 318
254 254 255 256 257 257 255 256 256 255 254 253 253 255 254 244 246 240 244 240 244 249 254 258 260 257 264 265 271 248 245 249 254 254 279 282 288 293 298 316 314 309 307 316 323
250 250 250 250 252 254 256 257 256 254 254 254 255 258 253 241 244 239 239 242 244 246 250 254 257 259 263 266 267 270 270 258 239 249 264 271 286 281 293 316 310 307 305 312 319
255 253 254 254 254 254 256 257 256 255 253 252 250 251 251 240 240 243 243 246 247 248 249 251 256 264 271 273 270 268 268 251 245 267 277 282 286 284 293 315 310 307 300 297 311
258 258 259 259 257 257 254 254 251 247 246 246 246 248 246 241 235 238 240 243 244 247 252 255 261 273 275 262 254 256 266 259 267 284 278 277 284 292 288 307 313 307 298 292 302
252 252 252 253 253 253 252 254 253 252 248 249 249 246 245 237 236 236 241 242 243 246 248 252 264 266 256 258 257 253 257 262 269 275 273 275 283 295 294 302 307 301 297 292 295
252 251 249 248 248 250 249 248 250 251 252 246 249 244 240 241 234 236 236 239 241 243 247 252 256 252 254 260 262 259 258 262 267 270 274 277 281 293 299 295 302 303 306 295 296
250 247 247 246 245 244 244 244 245 249 251 247 246 243 237 242 237 241 244 243 244 246 241 241 235 243 255 258 265 267 268 264 265 268 273 277 282 288 292 290 292 303 307 293 296
253 250 246 242 243 244 243 240 240 243 248 247 241 240 237 242 241 242 243 243 243 248 245 256 245 246 250 259 258 262 257 261 266 271 274 280 284 288 287 281 291 302 299 289 304
249 248 248 245 241 242 241 241 239 239 243 246 242 241 237 241 240 234 239 238 234 236 231 229 225 234 243 246 250 254 260 265 268 271 276 284 283 287 290 304 296 292 300 301 302
249 245 243 244 240 242 240 238 237 237 241 244 246 246 241 238 239 235 239 242 242 239 237 238 238 236 243 246 251 259 264 265 266 270 280 277 271 286 297 307 293 274 281 297 299
247 243 242 240 238 237 239 236 234 240 240 244 246 243 242 238 236 234 235 236 235 234 235 236 232 236 244 247 255 258 259 260 266 272 273 272 281 293 293 287 271 271 287 295 299
244 243 240 239 236 235 233 234 236 240 239 240 244 245 243 237 236 236 235 238 238 237 239 238 236 223 231 235 238 249 252 259 262 268 270 273 275 286 276 261 263 281 290 302 303
249 240 238 236 235 234 233 233 237 239 238 236 238 243 245 240 239 239 236 237 236 232 230 229 236 216 227 233 239 243 247 252 262 266 275 280 276 256 251 246 256 272 291 294 297
256 245 237 235 233 232 233 230 233 234 235 235 235 237 240 239 235 235 236 238 236 232 229 229 229 218 223 237 241 244 250 258 260 268 278 283 270 244 237 249 242 271 290 284 279
262 251 236 232 230 232 230 229 227 230 232 233 233 231 235 236 236 231 227 230 233 230 227 228 229 232 230 236 241 245 252 254 266 270 273 273 267 245 232 254 256 269 304 268 247
269 251 238 232 226 227 227 225 224 226 228 231 232 230 229 231 232 230 227 228 229 226 219 219 220 224 217 228 234 244 250 258 267 272 272 270 253 220 216 242 242 260 265 273 236
250 237 230 244 230 224 223 219 222 221 226 229 230 229 227 227 228 228 226 224 225 225 222 221 221 225 230 238 239 244 252 261 268 268 273 266 255 200 219 242 249 247 235 243 217
226 221 212 227 242 234 222 215 216 220 222 225 226 229 227 227 226 227 227 223 222 223 223 223 223 225 226 228 226 233 241 248 249 256 258 264 230 214 226 241 251 251 245 230 214
199 213 204 212 235 252 221 220 212 215 217 220 223 225 226 224 226 226 226 224 221 221 223 222 222 226 229 232 228 231 236 243 251 258 256 245 209 206 230 247 261 246 231 228 222
234 230 231 212 198 226 217 220 215 212 214 215 219 221 224 222 222 223 223 223 222 221 221 221 220 223 228 233 229 230 231 240 249 258 263 259 229 217 221 233 248 224 233 222 227
Height
5834 5837 5839 5841 5843 5846 5850 5850 5853 5855 5855 5858 5863 5863 5866 5868 5870 5873 5877 5875 5869 5872 5872 5869 5868 5867 5867 5865 5864 5862 5864 5864 5863 5863 5863 5861 5860 5857 5856 5851 5847 5844 5840 5837 5835
5827 5828 5831 5833 5834 5837 5839 5841 5842 5845 5848 5851 5856 5858 5859 5861 5863 5868 5871 5868 5862 5864 5868 5865 5863 5862 5862 5860 5858 5858 5860 5859 5859 5860 5859 5856 5854 5852 5850 5847 5842 5839 5835 5833 5830
5821 5821 5822 5824 5825 5827 5830 5831 5834 5836 5839 5842 5846 5847 5849 5853 5856 5861 5863 5862 5858 5858 5861 5858 5857 5857 5857 5855 5854 5854 5856 5853 5856 5853 5853 5851 5849 5848 5845 5842 5838 5834 5831 5829 5826
5818 5818 5818 5818 5820 5821 5822 5826 5828 5828 5830 5833 5836 5838 5843 5846 5849 5852 5852 5853 5852 5853 5854 5853 5853 5852 5852 5850 5849 5850 5851 5851 5853 5850 5849 5847 5845 5844 5840 5838 5834 5831 5828 5825 5822
5810 5811 5812 5813 5815 5817 5819 5820 5821 5822 5823 5825 5828 5830 5834 5836 5846 5836 5840 5845 5846 5846 5848 5847 5846 5846 5846 5845 5844 5845 5848 5846 5846 5846 5845 5843 5841 5840 5836 5834 5829 5827 5824 5822 5819
5803 5804 5806 5807 5810 5811 5812 5812 5814 5816 5817 5819 5820 5822 5826 5834 5832 5826 5831 5835 5837 5840 5842 5842 5842 5841 5839 5840 5840 5841 5843 5843 5842 5841 5841 5839 5838 5834 5833 5830 5826 5822 5820 5818 5815
5795 5797 5798 5801 5802 5803 5804 5805 5807 5808 5810 5812 5813 5814 5820 5828 5824 5824 5826 5829 5830 5833 5835 5835 5834 5834 5835 5835 5834 5835 5838 5837 5837 5836 5836 5835 5836 5831 5829 5827 5823 5820 5817 5815 5812
5786 5786 5787 5789 5791 5793 5795 5796 5797 5800 5803 5803 5805 5807 5815 5817 5817 5819 5819 5822 5826 5828 5828 5829 5827 5827 5830 5831 5831 5833 5832 5831 5832 5831 5831 5830 5833 5827 5826 5825 5821 5817 5813 5811 5809
5777 5778 5780 5781 5782 5784 5785 5786 5787 5789 5793 5795 5798 5801 5808 5810 5809 5810 5814 5817 5818 5821 5821 5822 5821 5823 5826 5828 5828 5828 5827 5826 5826 5827 5826 5826 5827 5824 5822 5822 5819 5815 5811 5809 5806
5768 5769 5770 5772 5774 5776 5776 5779 5780 5782 5784 5787 5791 5795 5798 5801 5802 5803 5807 5809 5811 5812 5814 5815 5815 5819 5823 5822 5824 5824 5821 5823 5823 5826 5824 5823 5822 5823 5818 5819 5816 5813 5809 5806 5803
5755 5757 5759 5761 5762 5765 5768 5771 5774 5776 5778 5781 5785 5787 5789 5791 5794 5795 5798 5801 5803 5805 5807 5810 5811 5816 5818 5818 5816 5819 5818 5818 5821 5822 5821 5819 5818 5820 5816 5816 5814 5809 5807 5803 5799
5741 5743 5746 5750 5752 5754 5757 5758 5761 5766 5771 5773 5776 5780 5782 5784 5785 5787 5792 5794 5796 5799 5803 5804 5807 5811 5810 5811 5811 5813 5814 5815 5817 5814 5814 5813 5814 5813 5813 5813 5811 5807 5803 5800 5797
5726 5728 5731 5735 5738 5741 5745 5748 5749 5753 5757 5766 5768 5772 5774 5775 5779 5781 5785 5787 5789 5792 5795 5798 5804 5802 5804 5805 5806 5808 5809 5811 5810 5807 5807 5807 5810 5810 5810 5808 5807 5805 5801 5797 5794
5708 5711 5716 5721 5724 5726 5730 5735 5738 5742 5746 5754 5758 5760 5765 5766 5770 5776 5778 5782 5783 5786 5789 5792 5794 5796 5798 5799 5803 5802 5806 5804 5802 5802 5804 5805 5805 5807 5805 5804 5802 5799 5796 5793 5791
5685 5689 5695 5703 5708 5711 5715 5720 5724 5731 5734 5740 5745 5747 5756 5757 5770 5770 5774 5773 5777 5780 5782 5787 5789 5792 5792 5797 5796 5798 5798 5797 5796 5797 5799 5801 5799 5802 5800 5800 5799 5794 5791 5789 5789
5661 5666 5671 5681 5690 5692 5697 5703 5710 5717 5714 5721 5732 5738 5747 5750 5757 5762 5763 5766 5770 5771 5775 5779 5783 5783 5785 5788 5789 5790 5791 5792 5792 5792 5794 5797 5794 5796 5794 5795 5794 5790 5788 5787 5785
5632 5639 5648 5657 5670 5671 5677 5683 5691 5696 5704 5710 5719 5729 5737 5742 5746 5752 5755 5758 5761 5765 5770 5773 5776 5778 5780 5780 5782 5783 5786 5787 5787 5787 5790 5790 5789 5792 5791 5790 5788 5786 5786 5785 5783
5600 5608 5620 5632 5642 5647 5650 5658 5670 5682 5694 5701 5705 5715 5724 5732 5736 5740 5745 5748 5751 5757 5763 5765 5769 5773 5775 5776 5779 5778 5780 5781 5781 5783 5785 5784 5785 5789 5787 5785 5783 5783 5783 5782 5781
5563 5577 5592 5604 5613 5617 5621 5626 5657 5668 5681 5689 5690 5697 5708 5720 5726 5729 5736 5741 5746 5751 5756 5759 5762 5768 5767 5770 5771 5773 5772 5776 5776 5776 5778 5781 5783 5785 5781 5781 5781 5781 5780 5780 5779
5527 5541 5561 5572 5581 5587 5588 5618 5642 5653 5660 5671 5677 5682 5691 5705 5714 5720 5725 5732 5735 5742 5748 5751 5753 5761 5762 5762 5763 5765 5768 5770 5769 5771 5772 5775 5777 5780 5778 5777 5778 5778 5778 5778 5778
5502 5508 5530 5539 5546 5553 5563 5611 5623 5630 5638 5648 5658 5667 5676 5689 5701 5709 5716 5720 5726 5734 5739 5742 5746 5753 5754 5752 5757 5758 5761 5763 5766 5766 5767 5770 5774 5776 5775 5774 5775 5775 5775 5776 5776
5484 5487 5502 5504 5516 5523 5553 5593 5595 5606 5615 5624 5637 5651 5662 5675 5685 5696 5702 5709 5715 5723 5728 5734 5738 5741 5747 5748 5749 5752 5756 5756 5759 5761 5763 5764 5769 5770 5772 5772 5772 5773 5773 5773 5774
5469 5474 5479 5483 5491 5500 5540 5554 5567 5584 5595 5601 5615 5632 5649 5659 5670 5680 5689 5696 5701 5708 5714 5721 5724 5730 5736 5738 5741 5745 5749 5751 5753 5755 5756 5761 5765 5766 5768 5769 5768 5770 5771 5772 5773
5454 5460 5467 5471 5477 5488 5509 5527 5542 5564 5574 5583 5598 5616 5630 5642 5654 5664 5674 5682 5690 5697 5702 5708 5715 5720 5727 5736 5739 5740 5744 5745 5748 5749 5753 5756 5760 5762 5764 5765 5766 5767 5768 5769 5772
5445 5453 5461 5467 5473 5480 5487 5504 5523 5539 5555 5564 5584 5599 5614 5627 5640 5649 5659 5669 5677 5685 5690 5697 5705 5711 5718 5723 5731 5735 5736 5738 5740 5744 5746 5752 5755 5757 5760 5761 5763 5765 5766 5767 5770
5447 5452 5455 5462 5466 5473 5474 5488 5505 5517 5533 5548 5565 5579 5593 5611 5623 5635 5644 5653 5663 5671 5678 5688 5697 5702 5708 5714 5721 5725 5728 5729 5736 5738 5740 5743 5748 5752 5755 5757 5759 5761 5763 5764 5766
5449 5451 5454 5456 5461 5466 5471 5481 5489 5498 5511 5530 5547 5560 5574 5593 5606 5617 5627 5638 5650 5659 5668 5678 5687 5693 5700 5705 5712 5710 5718 5724 5731 5732 5735 5737 5747 5747 5748 5752 5755 5758 5760 5761 5764